Weather History for Klamath Falls, OR

Change the Weather History Date:

Sunday, November 4, 2012

  Actual Average Record
Temperature  
Mean Temperature 48 °F 40 °F  
Max Temperature 66 °F 52 °F 70 °F (2009)
Min Temperature 30 °F 27 °F 14 °F (2002)
Degree Days  
Heating Degree Days 17 26  
Month to date heating degree days 79 100  
Since 1 July heating degree days 782 1016  
Cooling Degree Days 0 0  
Month to date cooling degree days 0 0  
Year to date cooling degree days 177 169  
Moisture  
Dew Point 37 °F    
Average Humidity 85    
Maximum Humidity 100    
Minimum Humidity 48    
Precipitation  
Precipitation 0.00 in 0.07 in 0.75 in (1938)
Month to date precipitation 0.03 0.28  
Year to date precipitation 6.71 11.60  
Sea Level Pressure  
Sea Level Pressure 30.37 in    
Wind  
Wind Speed 1 mph (SE)    
Max Wind Speed 7 mph    
Max Gust Speed 10 mph    
Visibility 8 miles    
Events Fog    
T = Trace of Precipitation, MM = Missing Value Source: NWS Daily Summary

Daily Weather History Graph

Daily Weather History Graph

Search for Another Location

Airport:

Trip Planner

Search our weather history database for the weather conditions in past years. The results will help you decide how hot, cold, wet, or windy it might be!

Date:

Astronomy

Nov. 04, 2012 Rise Set
Actual Time 6:44 AM PST 4:56 PM PST
Civil Twilight 6:14 AM PST 5:25 PM PST
Nautical Twilight 5:41 AM PST 5:58 PM PST
Astronomical Twilight 5:08 AM PST 6:31 PM PST
Moon 9:38 PM PST (11/4) 11:32 AM PST (11/4)
Length of Visible Light 11h 10m
Length of Day
10h 11m
Waning Gibbous, 71% of the Moon is Illuminated
Nov 4
Waning Gibbous
Nov 6
Last Quarter
Nov 13
New
Nov 20
First Quarter
Nov 28
Full

Hourly Weather History & Observations

Time (PST) Temp. Windchill Dew Point Humidity Pressure Visibility Wind Dir Wind Speed Gust Speed Precip Events Conditions
12:53 AM 37.9 °F - 36.0 °F 93% 30.28 in 10.0 mi Calm Calm - N/A   Clear
1:53 AM 37.0 °F - 35.1 °F 93% 30.29 in 10.0 mi Calm Calm - N/A   Clear
1:53 AM 35.1 °F - 34.0 °F 96% 30.30 in 10.0 mi Calm Calm - N/A   Clear
2:53 AM 34.0 °F - 33.1 °F 96% 30.30 in 10.0 mi Calm Calm - N/A   Clear
3:53 AM 32.0 °F 25.6 °F 30.9 °F 96% 30.32 in 9.0 mi SE 6.9 mph - N/A   Clear
3:56 AM 33.8 °F 28.6 °F 30.2 °F 87% 30.33 in 2.5 mi SE 5.8 mph - N/A   Partly Cloudy
4:01 AM 33.8 °F 29.6 °F 33.8 °F 100% 30.33 in 1.0 mi SE 4.6 mph - N/A   Mist
4:10 AM 33.8 °F 30.8 °F 33.8 °F 100% 30.33 in 2.0 mi SE 3.5 mph - N/A   Partly Cloudy
4:18 AM 33.8 °F - 33.8 °F 100% 30.33 in 7.0 mi Calm Calm - N/A   Partly Cloudy
4:53 AM 33.1 °F - 30.9 °F 92% 30.33 in 7.0 mi Calm Calm - N/A   Clear
5:14 AM 32.0 °F 27.5 °F 30.2 °F 93% 30.34 in 1.8 mi SSW 4.6 mph - N/A   Partly Cloudy
5:17 AM 32.0 °F - 32.0 °F 100% 30.35 in 0.8 mi Calm Calm - N/A   Mist
5:36 AM 32.0 °F - 32.0 °F 100% 30.35 in 1.2 mi Calm Calm - N/A   Scattered Clouds
5:43 AM 32.0 °F - 30.2 °F 93% 30.35 in 1.0 mi Calm Calm - N/A   Mist
5:53 AM 32.0 °F - 30.9 °F 96% 30.36 in 2.0 mi Calm Calm - N/A   Partly Cloudy
6:02 AM 32.0 °F - 32.0 °F 100% 30.36 in 7.0 mi Calm Calm - N/A Fog Patches of Fog
6:53 AM 30.9 °F - 30.9 °F 100% 30.39 in 7.0 mi Calm Calm - N/A Fog Patches of Fog
7:53 AM 36.0 °F - 36.0 °F 100% 30.41 in 7.0 mi Calm Calm - N/A Fog Patches of Fog
8:53 AM 43.0 °F - 39.9 °F 89% 30.42 in 10.0 mi Calm Calm - N/A   Mostly Cloudy
9:53 AM 48.0 °F - 41.0 °F 77% 30.42 in 10.0 mi Calm Calm - N/A   Mostly Cloudy
10:53 AM 54.0 °F - 43.0 °F 66% 30.41 in 10.0 mi Calm Calm - N/A   Mostly Cloudy
11:53 AM 57.9 °F - 44.1 °F 60% 30.39 in 10.0 mi Calm Calm - N/A   Scattered Clouds
12:53 PM 62.1 °F - 43.0 °F 50% 30.36 in 10.0 mi Calm Calm - N/A   Partly Cloudy
1:53 PM 63.0 °F - 44.1 °F 50% 30.36 in 10.0 mi SSE 3.5 mph - N/A   Partly Cloudy
2:53 PM 64.0 °F - 45.0 °F 50% 30.36 in 10.0 mi Calm Calm - N/A   Partly Cloudy
3:53 PM 64.0 °F - 44.1 °F 48% 30.37 in 10.0 mi Calm Calm - N/A   Partly Cloudy
4:53 PM 60.1 °F - 45.0 °F 57% 30.37 in 10.0 mi Calm Calm - N/A   Partly Cloudy
5:53 PM 51.1 °F - 45.0 °F 80% 30.40 in 10.0 mi Calm Calm - N/A   Partly Cloudy
6:53 PM 45.0 °F - 42.1 °F 90% 30.44 in 10.0 mi Calm Calm - N/A   Partly Cloudy
7:53 PM 46.0 °F - 42.1 °F 86% 30.44 in 10.0 mi Calm Calm - N/A   Clear
8:53 PM 42.1 °F - 39.0 °F 89% 30.43 in 10.0 mi Calm Calm - N/A   Clear
9:53 PM 37.9 °F - 37.0 °F 97% 30.44 in 10.0 mi Calm Calm - N/A   Clear
10:53 PM 39.0 °F 36.8 °F 37.0 °F 93% 30.42 in 10.0 mi NNE 3.5 mph - N/A   Clear